STARLINK-11532, 62596

Orbit data source: Space-Track

STARLINK-11532, 62596 is a payload satellite owned by SpaceX/Seattle (US) in LEO that was launched on Mon, 13 Jan 2025 UTC via an FALCON 9 launch vehicle from the Air Force Eastern Test Range (AFETR). Payloads include a variety of satellites, spacecraft, and rockets equipped with specific instruments for various scientific and technological missions. These include communications satellites like Starlink; space stations such as the ISS; scientific satellites like the Hubble; Earth observation satellites from companies like Planet Labs, Umbra, and HawkEye 360; GPS; miniature CubeSats for education and research; and military/defense satellites.

Loading next visibility...
STARLINK-11532 details
Identifier
62596, 2025-008K
Orbit
LEO
Last TLE update8 hours ago
Origin
Flag of USSpaceX/Seattle (US)
ManufacturerSpaceX/Seattle
MissionOperational spacecraft
Bus & MotorSTARLINK V2M, Unknown motor
Mass730 kg wet, ~700 kg dry
Launch date (UTC)
2025-01-13 (3 weeks ago)
Launch vehicle
FALCON 9
Launch site
Air Force Eastern Test Range (AFETR)
Object type
Payload
Rocket body
Debris
Shape & HBRUnknown
Radar Cross SectionLarge (>1 m²)

Expand to show TLE details & history

TLE from 8 hours ago
0 STARLINK-11532
1 62596U 25008K   25035.83335648  .00094232  00000-0  53980-3 0  9996
2 62596  43.0013   6.0882 0001503 256.2101  47.5692 15.77797823  4464
Epoch: 2025-02-04T20:00Z
Definitive object data (Epoch: 2025-02-04T20:00:01.999Z)
Latitude-34.70602°
Longitude-116.75695°
Altitude345.854 km
Speed7.702 km/s
True Right ascension21h 13m 56s
True Declination-34° 32' 07"
Sunlit
Object was in daylight at TLE epoch
Visualization TLE readout
Latitude39.32654°
Longitude-10.33858°
Altitude339.78 km
Speed7.71 km/s
Apparent Right ascension23h 42m 33s
Apparent Declination3° 55' 13"
Sunlit
Object is in full shadow
Visualization observer readout
Local Sidereal Time06:09:00
Azimuth277.253° WNW
Elevation-2.534°
Doppler factor1
Orbital elements
Apogee altitude339.678 km
Perigee altitude337.659 km
Semi-major axis6,716.806 km
Eccentricity0.0001503
Inclination43.0013°
RAAN6.0882°
Arg. of periapsis256.2101°
True anomaly47.58191°
Mean anomaly47.5692°
Eccentric anomaly47.57556°
Mean motion3.94275 °/min
BSTAR0.0005398
Orbital period91.31 mins
Loading maneuver chart data...
Loading historical data...
Loading historical data...
Loading historical data...
Loading historical data...
Loading historical data...
Loading historical data...
Loading historical data...

STARLINK-11532 Visibility forecast

Observer location: undefined°, undefined

Span
Click to sort rows by Start time (UTC) header in descending order
Start Az.
Max El. time (UTC)
Max El. Az.
Max El.
End time (UTC)
End Az.
5 mins2025-02-05 04:10:12.767Z287.426° WNW2025-02-05 04:13:12.767Z28.679° NE31.289°2025-02-05 04:15:12.767Z71.51° E
4 mins2025-02-05 05:47:12.767Z292.717° NW2025-02-05 05:48:12.767Z307.859° NW41.398°2025-02-05 05:51:12.767Z104.273° ESE
4 mins2025-02-06 02:56:12.767Z286.083° WNW2025-02-06 02:57:12.767Z320.841° NNW35.071°2025-02-06 03:00:12.767Z67.749° E
|